GW1930 Weather Reports


time (UTC)temp
C
wind
direction
speed
KPH
gust
KPH
rain 1hr
cm
rain 24hr
cm
rain mn
cm
humidity
%
barometer
mb
20260504081541 9 0 0.0 0.0 0.00 0.00 0.00 93 1017.8
20260504044542 11 0 0.0 0.0 0.00 0.00 0.00 89 1018.9
20260504043049 11 0 0.0 0.0 0.00 0.00 0.00 89 1018.9
20260504041541 11 0 0.0 0.0 0.00 0.00 0.00 88 1019.1
20260504040051 12 0 0.0 0.0 0.00 0.00 0.00 87 1019.0
20260504034543 12 0 0.0 0.0 0.00 0.00 0.00 85 1019.1
20260504033045 12 0 0.0 0.0 0.00 0.00 0.00 86 1019.1
20260504031548 13 0 0.0 0.0 0.00 0.00 0.00 84 1019.3
20260504030046 13 0 0.0 0.0 0.00 0.00 0.00 83 1018.9
20260504024547 13 0 0.0 0.0 0.00 0.00 0.00 82 1018.9
20260504023043 13 0 0.0 0.0 0.00 0.00 0.00 81 1019.0
20260504021538 14 0 0.0 0.0 0.00 0.00 0.00 80 1018.9
20260504020045 14 0 0.0 0.0 0.00 0.00 0.00 77 1018.7
20260504014541 15 0 0.0 0.0 0.00 0.00 0.00 78 1018.4
20260504013039 15 0 0.0 0.0 0.00 0.00 0.00 76 1018.3
20260504011544 16 0 0.0 0.0 0.00 0.00 0.00 73 1018.3
20260504010041 17 0 0.0 0.0 0.00 0.00 0.00 71 1018.1
20260504004547 17 0 0.0 0.0 0.00 0.00 0.00 69 1018.0
20260504003051 18 0 0.0 0.0 0.00 0.00 0.00 62 1017.8
20260504001545 20 0 0.0 0.0 0.00 0.00 0.00 57 1017.7
20260504000112 21 0 0.0 0.0 0.00 0.00 0.00 50 1017.8
20260503234551 22 0 0.0 0.0 0.00 0.00 0.00 44 1017.9
20260503233044 23 0 0.0 0.0 0.00 0.00 0.00 43 1017.8
20260503231546 23 0 0.0 0.0 0.00 0.00 0.00 38 1017.8
20260503230044 23 0 0.0 0.0 0.00 0.00 0.00 36 1017.8
20260503224542 24 0 0.0 0.0 0.00 0.00 0.00 36 1018.0
20260503223051 24 0 0.0 0.0 0.00 0.00 0.00 35 1017.9
20260503221554 24 0 0.0 0.0 0.00 0.00 0.00 34 1018.1
20260503220050 24 0 0.0 0.0 0.00 0.00 0.00 33 1018.2
20260503214546 24 0 0.0 0.0 0.00 0.00 0.00 35 1018.3
20260503213046 24 0 0.0 0.0 0.00 0.00 0.00 37 1018.4
20260503211601 24 0 0.0 0.0 0.00 0.00 0.00 37 1018.5
20260503210049 23 0 0.0 0.0 0.00 0.00 0.00 34 1018.7
20260503204548 23 0 0.0 0.0 0.00 0.00 0.00 33 1018.9
20260503203104 24 0 0.0 0.0 0.00 0.00 0.00 34 1019.2
20260503201558 24 0 0.0 0.0 0.00 0.00 0.00 34 1019.4
20260503200048 24 0 0.0 0.0 0.00 0.00 0.00 35 1019.9
20260503194553 23 0 0.0 0.0 0.00 0.00 0.00 38 1020.0
20260503193051 23 0 0.0 0.0 0.00 0.00 0.00 40 1020.3
20260503191547 23 0 0.0 0.0 0.00 0.00 0.00 37 1020.5
20260503190044 23 0 0.0 0.0 0.00 0.00 0.00 36 1020.7
20260503184546 23 0 0.0 0.0 0.00 0.00 0.00 35 1021.0
20260503183046 23 0 0.0 0.0 0.00 0.00 0.00 32 1021.3
20260503181549 23 0 0.0 0.0 0.00 0.00 0.00 37 1021.3
20260503180044 22 0 0.0 0.0 0.00 0.00 0.00 41 1021.4
20260503174548 22 0 0.0 0.0 0.00 0.00 0.00 37 1021.8
20260503173056 23 0 0.0 0.0 0.00 0.00 0.00 35 1022.0
20260503171544 22 0 0.0 0.0 0.00 0.00 0.00 36 1022.0